Time,TemperatureF,DewpointF,PressureIn,WindDirection,WindDirectionDegrees,WindSpeedMPH,WindSpeedGustMPH,Humidity,HourlyPrecipIn,Conditions,Clouds,dailyrainin,SoftwareType,DateUTC
2013-04-15 00:06:00,36.3,27.1,30.12,West,281,3.0,3.0,69,0.00,,,0.03,Wunderground v.1.15,2013-04-15 04:06:00,
2013-04-15 00:16:00,36.0,27.2,30.11,West,281,0.0,9.0,70,0.00,,,0.03,Wunderground v.1.15,2013-04-15 04:16:00,
2013-04-15 00:46:00,36.0,26.8,30.13,West,281,0.0,5.0,69,0.00,,,0.03,Wunderground v.1.15,2013-04-15 04:46:00,
2013-04-15 00:56:00,35.3,26.8,30.13,West,281,0.0,5.0,71,0.00,,,0.03,Wunderground v.1.15,2013-04-15 04:56:00,
2013-04-15 01:36:00,34.0,27.2,30.15,West,281,0.0,2.0,76,0.00,,,0.00,Wunderground v.1.15,2013-04-15 05:36:00,
2013-04-15 01:46:00,34.1,27.0,30.15,West,281,0.0,2.0,75,0.00,,,0.00,Wunderground v.1.15,2013-04-15 05:46:00,
2013-04-15 01:56:00,34.1,27.3,30.15,West,281,0.0,2.0,76,0.00,,,0.00,Wunderground v.1.15,2013-04-15 05:56:00,
2013-04-15 02:05:00,33.8,27.0,30.15,West,281,0.0,2.0,76,0.00,,,0.00,Wunderground v.1.15,2013-04-15 06:05:00,
2013-04-15 02:16:00,33.4,27.0,30.15,West,281,1.0,1.0,77,0.00,,,0.00,Wunderground v.1.15,2013-04-15 06:16:00,
2013-04-15 02:26:00,33.4,26.0,30.15,West,281,0.0,2.0,74,0.00,,,0.00,Wunderground v.1.15,2013-04-15 06:26:00,
2013-04-15 03:06:00,33.8,25.4,30.15,West,281,0.0,4.0,71,0.00,,,0.00,Wunderground v.1.15,2013-04-15 07:06:00,
2013-04-15 03:45:00,33.8,25.0,30.17,West,281,0.0,3.0,70,0.00,,,0.00,Wunderground v.1.15,2013-04-15 07:45:00,
2013-04-15 03:55:00,33.2,24.8,30.17,West,281,0.0,3.0,71,0.00,,,0.00,Wunderground v.1.15,2013-04-15 07:55:00,
2013-04-15 05:06:00,32.1,25.1,30.20,West,281,0.0,2.0,75,0.00,,,0.00,Wunderground v.1.15,2013-04-15 09:06:00,
2013-04-15 05:16:00,32.1,25.1,30.20,West,281,0.0,2.0,75,0.00,,,0.00,Wunderground v.1.15,2013-04-15 09:16:00,
2013-04-15 05:36:00,32.4,25.4,30.21,West,281,0.0,0.0,75,0.00,,,0.00,Wunderground v.1.15,2013-04-15 09:36:00,
2013-04-15 06:06:00,32.5,25.1,30.23,West,281,0.0,1.0,74,0.00,,,0.00,Wunderground v.1.15,2013-04-15 10:06:00,
2013-04-15 06:16:00,32.2,25.2,30.24,West,281,0.0,1.0,75,0.00,,,0.00,Wunderground v.1.15,2013-04-15 10:16:00,
2013-04-15 07:06:00,34.0,26.6,30.26,West,281,0.0,2.0,74,0.00,,,0.00,Wunderground v.1.15,2013-04-15 11:06:00,
2013-04-15 08:06:00,36.8,27.6,30.29,West,281,2.0,4.0,69,0.00,,,0.00,Wunderground v.1.15,2013-04-15 12:06:00,
2013-04-15 08:16:00,37.6,28.0,30.29,West,281,0.0,4.0,68,0.00,,,0.00,Wunderground v.1.15,2013-04-15 12:16:00,
2013-04-15 09:06:00,41.1,29.5,30.29,West,281,1.0,1.0,63,0.00,,,0.00,Wunderground v.1.15,2013-04-15 13:06:00,
2013-04-15 09:16:00,42.6,28.8,30.29,West,281,0.0,4.0,58,0.00,,,0.00,Wunderground v.1.15,2013-04-15 13:16:00,
2013-04-15 09:26:00,44.9,30.1,30.29,East,97,2.0,2.0,56,0.00,,,0.00,Wunderground v.1.15,2013-04-15 13:26:00,
2013-04-15 09:36:00,45.2,28.6,30.28,SE,128,2.0,5.0,52,0.00,,,0.00,Wunderground v.1.15,2013-04-15 13:36:00,
2013-04-15 09:46:00,45.5,27.4,30.28,SSE,154,3.0,3.0,49,0.00,,,0.00,Wunderground v.1.15,2013-04-15 13:46:00,
2013-04-15 09:56:00,46.5,26.8,30.28,SE,134,3.0,7.0,46,0.00,,,0.00,Wunderground v.1.15,2013-04-15 13:56:00,
2013-04-15 10:36:00,46.4,25.6,30.28,SE,136,4.0,4.0,44,0.00,,,0.00,Wunderground v.1.15,2013-04-15 14:36:00,
2013-04-15 10:46:00,47.6,26.2,30.28,East,99,5.0,5.0,43,0.00,,,0.00,Wunderground v.1.15,2013-04-15 14:46:00,
2013-04-15 10:56:00,48.6,26.5,30.28,SE,143,3.0,11.0,42,0.00,,,0.00,Wunderground v.1.15,2013-04-15 14:56:00,
2013-04-15 11:36:00,50.1,26.1,30.27,East,82,4.0,15.0,39,0.00,,,0.00,Wunderground v.1.15,2013-04-15 15:36:00,
2013-04-15 11:46:00,49.5,24.9,30.27,SE,146,4.0,4.0,38,0.00,,,0.00,Wunderground v.1.15,2013-04-15 15:46:00,
2013-04-15 12:36:00,51.4,26.0,30.25,East,97,4.0,14.0,37,0.00,,,0.00,Wunderground v.1.15,2013-04-15 16:36:00,
2013-04-15 12:46:00,52.3,26.1,30.25,East,89,5.0,5.0,36,0.00,,,0.00,Wunderground v.1.15,2013-04-15 16:46:00,
2013-04-15 13:36:00,51.7,26.2,30.23,SSE,147,7.0,21.0,37,0.00,,,0.00,Wunderground v.1.15,2013-04-15 17:36:00,
2013-04-15 13:46:00,53.3,26.3,30.23,SSE,154,5.0,5.0,35,0.00,,,0.00,Wunderground v.1.15,2013-04-15 17:46:00,
2013-04-15 14:15:00,53.1,24.7,30.23,ESE,120,7.0,17.0,33,0.00,,,0.00,Wunderground v.1.15,2013-04-15 18:15:00,
2013-04-15 14:26:00,52.3,24.0,30.23,SE,144,8.0,8.0,33,0.00,,,0.00,Wunderground v.1.15,2013-04-15 18:26:00,
2013-04-15 15:06:00,53.5,23.6,30.22,ESE,105,5.0,18.0,31,0.00,,,0.00,Wunderground v.1.15,2013-04-15 19:06:00,
2013-04-15 15:56:00,52.8,23.0,30.22,ESE,108,8.0,8.0,31,0.00,,,0.00,Wunderground v.1.15,2013-04-15 19:56:00,
2013-04-15 16:26:00,53.2,24.1,30.21,East,82,6.0,6.0,32,0.00,,,0.00,Wunderground v.1.15,2013-04-15 20:26:00,
2013-04-15 17:06:00,53.8,24.6,30.21,SE,135,4.0,18.0,32,0.00,,,0.00,Wunderground v.1.15,2013-04-15 21:06:00,
2013-04-15 17:16:00,53.3,24.9,30.21,ESE,118,4.0,4.0,33,0.00,,,0.00,Wunderground v.1.15,2013-04-15 21:16:00,
2013-04-15 17:26:00,52.6,24.3,30.21,SE,138,5.0,18.0,33,0.00,,,0.00,Wunderground v.1.15,2013-04-15 21:26:00,
2013-04-15 18:06:00,53.1,23.2,30.22,SSE,147,2.0,10.0,31,0.00,,,0.00,Wunderground v.1.15,2013-04-15 22:06:00,
2013-04-15 18:16:00,53.1,23.2,30.23,South,186,3.0,10.0,31,0.00,,,0.00,Wunderground v.1.15,2013-04-15 22:16:00,
2013-04-15 18:26:00,52.5,23.5,30.23,SSE,153,1.0,1.0,32,0.00,,,0.00,Wunderground v.1.15,2013-04-15 22:26:00,
2013-04-15 19:36:00,46.0,32.5,30.27,SE,143,2.0,2.0,59,0.00,,,0.00,Wunderground v.1.15,2013-04-15 23:36:00,
2013-04-15 19:46:00,45.4,31.9,30.28,SE,130,2.0,15.0,59,0.00,,,0.00,Wunderground v.1.15,2013-04-15 23:46:00,
2013-04-15 19:56:00,45.1,32.0,30.28,SE,137,4.0,15.0,60,0.00,,,0.00,Wunderground v.1.15,2013-04-15 23:56:00,
2013-04-15 20:35:00,43.6,31.8,30.28,ENE,78,3.0,3.0,63,0.00,,,0.00,Wunderground v.1.15,2013-04-16 00:35:00,
2013-04-15 20:46:00,43.2,31.8,30.29,SSE,158,2.0,2.0,64,0.00,,,0.00,Wunderground v.1.15,2013-04-16 00:46:00,
2013-04-15 20:56:00,42.6,31.7,30.29,ESE,123,1.0,12.0,65,0.00,,,0.00,Wunderground v.1.15,2013-04-16 00:56:00,
2013-04-15 23:06:00,38.9,32.0,30.29,SE,139,1.0,1.0,76,0.00,,,0.00,Wunderground v.1.15,2013-04-16 03:06:00,
2013-04-15 23:16:00,38.8,31.9,30.30,SE,130,1.0,1.0,76,0.00,,,0.00,Wunderground v.1.15,2013-04-16 03:16:00,
2013-04-15 23:26:00,38.3,31.7,30.30,SE,130,0.0,6.0,77,0.00,,,0.00,Wunderground v.1.15,2013-04-16 03:26:00,